Find Starlink 33960

NORAD ID: 63966 Int'l Des: 2025-099 Owner: SPXS Country: US Constellation: starlink operational
LEOCIRCULAR

实时位置

正在加载3D地球...

关于 Starlink 33960

正在加载描述...

即将过境

Passes for default location (London). Set your location on the main map for personalized predictions.

高度历史

Loading altitude history...

两行轨道根数

1 63966U 25099Q 26105.00913019 .00012131 00000-0 44918-3 0 9999
2 63966 43.0020 330.8659 0001649 258.2185 101.8482 15.27611328 52890
Epoch: Apr 15, 2026 • Age: 11 hours

当前状态

高度 483.4 km
速度 7.63 km/s
星下点 23.62°N, 17.99°W
发射日期 May 13, 2025
运行时间 0.9 years
类型 internet

技术详情

分类 Payload
质量 575.00 kg
干质量 530.00 kg
总质量 575.00 kg
长度 0.30 m
直径 4.10 m
跨度 29.00 m
形状 Box + pan
制造商 SPXS
平台类型 Starlink V2MO
阶段状态 In Orbit
所有者/国家 SPXS/US

Most Searched